Погода в Марвдаште

Иран     29°51′57″N   52°47′49″E
темп.,
°C
ветер,
м/с
пор.,
м/с
влажн.,
%
обл.,
%
осадки,
мм/ч
давл.,
гПа
погр.,
м
22 января, сб
сб2200:30−1сз22490 0.0 102531
03:30−1сз22440 0.0 102530
06:30−2сз12400 0.0 102519
09:30+1сз11270 0.0 1024267
12:30+5зюз11210 0.0 1019550
15:30+7ю11200 0.0 1016529
18:30+4юв11370 0.0 101710
21:30+3зсз11370 0.0 101810
23 января, вс
вс2300:30+2сз33380 0.0 102010
03:30+1сз33400 0.0 102016
06:300сз33340 0.0 102122
09:30+4сз23210 0.0 1021222
12:30+8з12140 0.0 1017520
15:30+10ююз11140 0.0 1015568
18:30+6ююв11270 0.0 101710
21:30+5зсз22271 0.0 101810
24 января, пн
пн2400:30+3сз33310 0.0 101912
03:30+2сз33310 0.0 102014
06:30+2сз22290 0.0 102011
09:30+6сз22210 0.0 1020185
12:30+11з12180 0.0 1017612
15:30+13зсз14170 0.0 10141163
18:30+9з22290 0.0 101711
21:30+7з22330 0.0 101911
25 января, вт
вт2500:30+6сз33400 0.0 102013
03:30+4сз33472 0.0 102019
06:30+3сз32510 0.0 102214
09:30+7сз23460 0.0 1021222
12:30+10зсз12400 0.0 1018805
15:30+12с12330 0.0 1016941
18:30+9всв11460 0.0 101710
21:30+7вюв11463 0.0 101910
26 января, ср
ср2600:30+6сз22470 0.0 102014
03:30+4сз22550 0.0 102010
06:30+3сз11580 0.0 102010
09:30+8з01430 0.0 1021192
12:30+12юз12320 0.0 1018747
15:30+13ю12240 0.0 1015857
18:30+10ююв11370 0.0 101610
21:30+9ююз11390 0.0 101710